Regional Weather Roundup
Issued by NWS

Home | Current Version | Previous Version | Text Only | Print | Product List | Glossary On
Versions: 1 2 3 4 5 6 7 8 9 10 11 12 13 14 15 16 17 18 19 20 21 22 23 24 25 26 27
000
ASUS44 KJAN 280210
RWRMS

MISSISSIPPI HOURLY WEATHER ROUNDUP
NATIONAL WEATHER SERVICE JACKSON MS
900 PM CDT TUE JUN 27 2017

NOTE: "FAIR: INDICATES FEW OR NO CLOUDS BELOW 12,000 FEET WITH NO
SIGNIFICANT WEATHER AND/OR OBSTRUCTIONS TO VISIBILITY.

MSZ001>002-007>008-010>013-018>021-025>028-034>036-280300-
NORTHWEST MISSISSIPPI

CITY           SKY/WX    TMP DP  RH WIND       PRES   REMARKS
CLARKSDALE       N/A     77  70  78 E3G12     30.02S
CLEVELAND      FAIR      76  67  75 CALM      30.01S
GREENWOOD      CLEAR     74  69  85 NE5       30.02R
GREENVILLE     CLEAR     74  69  85 NE5       30.01R
OXFORD         FAIR      72  64  78 CALM      30.05S
TUNICA           N/A     73  68  83 CALM      30.03S
$$

MSZ003>006-009-014>017-022>024-029>033-037>039-280300-
NORTHEAST MISSISSIPPI

CITY           SKY/WX    TMP DP  RH WIND       PRES   REMARKS
COLUMBUS AFB   CLEAR     74  69  83 CALM      30.02R
CORINTH        FAIR      72  64  78 CALM      30.05R
GOLDN TRIANGLE PTCLDY    79  63  57 NE3       30.00R
STARKVILLE     FAIR      72  66  83 CALM      30.04R
TUPELO         CLEAR     76  63  64 N3        30.03R
$$

MSZ040-058-280300-
CENTRAL MISSISSIPPI

CITY           SKY/WX    TMP DP  RH WIND       PRES   REMARKS
JACKSON INTL   CLEAR     76  67  73 CALM      30.02R
JACKSON HAWKNS CLEAR     78  64  61 SE3       30.02R
MADISON        FAIR      72  66  83 CALM      30.01S
MERIDIAN KEY   CLEAR     74  69  85 CALM      30.03R
MERIDIAN NAS   PTCLDY    78  64  61 CALM      30.03R
RAYMOND        FAIR      73  70  88 CALM      30.01R
VICKSBURG VKS  CLEAR     77  70  78 CALM      29.98R
$$

MSZ059>079-280300-
SOUTH MISSISSIPPI

CITY           SKY/WX    TMP DP  RH WIND       PRES   REMARKS
COLUMBIA       FAIR      75  73  94 CALM      30.04R
HATTIESBURG    CLOUDY    76  72  87 CALM      30.02R
LAUREL         FAIR      75  67  75 CALM      30.02R
MCCOMB         CLOUDY    74  68  81 CALM      30.01S
NATCHEZ        CLEAR     75  68  78 CALM      30.02R
PINE BELT      CLOUDY    75  68  78 CALM      30.04S
$$

MSZ080>082-280300-
COASTAL MISSISSIPPI

CITY           SKY/WX    TMP DP  RH WIND       PRES   REMARKS
BAY ST LOUIS   PTCLDY    73  73 100 CALM      30.00R
BILOXI         CLOUDY    79  73  83 CALM      30.00R
PASCAGOULA     CLOUDY    77  73  87 CALM      30.01R
GULFPORT       MOCLDY    79  72  79 CALM      30.00R
$$

LAZ007>009-015>016-023>026-280300-
NORTHEAST LOUISIANA

CITY           SKY/WX    TMP DP  RH WIND       PRES   REMARKS
TALLULAH/VBURG PTCLDY    75  70  84 CALM      30.00R
$$




USA.gov is the U.S. government's official web portal to all federal, state and local government web resources and services.